20040723,000008,872664,33.162000,-121.603500,17.142,32.966,NaN,NaN
20040723,000038,872694,33.161667,-121.602667,17.132,32.967,NaN,NaN
20040723,000108,872724,33.161833,-121.601833,17.119,32.970,NaN,NaN
20040723,000138,872754,33.162000,-121.601167,17.107,32.971,1.824,NaN
20040723,000208,872784,33.162333,-121.600500,17.106,32.972,NaN,NaN
20040723,000238,872814,33.162833,-121.599667,17.070,32.977,NaN,NaN
20040723,000308,872844,33.163333,-121.598667,16.983,32.975,NaN,NaN
20040723,000338,872874,33.163833,-121.597667,16.941,32.975,NaN,NaN
20040723,000408,872904,33.164333,-121.596500,16.923,32.978,NaN,NaN
20040723,000438,872934,33.165000,-121.595167,16.928,32.980,NaN,NaN
20040723,000508,872964,33.165667,-121.593833,16.946,32.985,NaN,NaN
20040723,000538,872994,33.166333,-121.592500,16.960,32.992,NaN,NaN
20040723,000608,873024,33.167000,-121.591333,16.967,32.996,NaN,NaN
20040723,000638,873054,33.167500,-121.590667,16.969,32.997,NaN,NaN
20040723,000708,873084,33.167833,-121.589833,16.971,32.999,NaN,NaN
20040723,000738,873114,33.167667,-121.589167,16.975,33.000,NaN,NaN
20040723,000808,873144,33.167167,-121.588833,16.979,33.003,NaN,NaN
20040723,000838,873174,33.166667,-121.588500,16.983,33.005,NaN,NaN
20040723,000908,873204,33.166000,-121.588167,16.991,33.008,NaN,NaN
20040723,000938,873234,33.165667,-121.587333,17.001,33.011,NaN,NaN
20040723,001008,873264,33.165500,-121.586167,17.010,33.015,NaN,NaN
20040723,001038,873294,33.165833,-121.585167,17.017,33.017,NaN,NaN
20040723,001108,873324,33.166500,-121.584167,17.022,33.018,NaN,NaN
20040723,001138,873354,33.167167,-121.582833,17.032,33.019,NaN,NaN
20040723,001208,873384,33.167833,-121.581500,17.047,33.024,NaN,NaN
20040723,001238,873414,33.168500,-121.580000,17.071,33.032,NaN,NaN
20040723,001308,873444,33.169167,-121.578667,17.094,33.044,NaN,NaN
20040723,001338,873474,33.169833,-121.577167,17.112,33.052,NaN,NaN
20040723,001408,873504,33.170500,-121.575833,17.125,33.059,NaN,NaN
20040723,001438,873534,33.171333,-121.574333,17.137,33.061,NaN,NaN
20040723,001508,873564,33.172000,-121.572833,17.147,33.065,NaN,NaN
20040723,001538,873594,33.172667,-121.571500,17.156,33.066,NaN,NaN
20040723,001608,873624,33.173333,-121.570500,17.161,33.069,NaN,NaN
20040723,001638,873654,33.173833,-121.569667,17.166,33.071,NaN,NaN
20040723,001708,873684,33.174167,-121.569000,17.167,33.072,NaN,NaN
20040723,001738,873714,33.174500,-121.568333,17.171,33.073,NaN,NaN
20040723,001808,873744,33.174667,-121.567833,17.175,33.073,NaN,NaN
20040723,001838,873774,33.175000,-121.567333,17.180,33.074,NaN,NaN
20040723,001908,873804,33.175167,-121.566667,17.185,33.076,NaN,NaN
20040723,001938,873834,33.175333,-121.566167,17.189,33.078,NaN,NaN
20040723,002008,873864,33.175500,-121.565833,17.193,33.080,NaN,NaN
20040723,002038,873894,33.175667,-121.565333,17.196,33.080,NaN,NaN
20040723,002108,873924,33.175833,-121.564833,17.199,33.082,NaN,NaN
20040723,002138,873954,33.176000,-121.564333,17.202,33.084,NaN,NaN
20040723,002208,873984,33.176167,-121.563833,17.204,33.084,NaN,NaN
20040723,002238,874014,33.176500,-121.563000,17.202,33.085,NaN,NaN
20040723,002308,874044,33.176833,-121.562000,17.199,33.086,NaN,NaN
20040723,002338,874074,33.177500,-121.561000,17.198,33.084,NaN,NaN
20040723,002408,874104,33.178167,-121.559667,17.197,33.084,NaN,NaN
20040723,002438,874134,33.178833,-121.558333,17.193,33.082,NaN,NaN
20040723,002508,874164,33.179667,-121.557000,17.189,33.081,NaN,NaN
20040723,002538,874194,33.180333,-121.555500,17.186,33.080,NaN,NaN
20040723,002608,874224,33.181167,-121.554167,17.182,33.079,NaN,NaN
20040723,002638,874254,33.182000,-121.552667,17.181,33.078,NaN,NaN
20040723,002708,874284,33.182833,-121.551333,17.176,33.077,NaN,NaN
20040723,002738,874314,33.183500,-121.549833,17.170,33.077,NaN,NaN
20040723,002808,874344,33.184333,-121.548500,17.166,33.076,NaN,NaN
20040723,002838,874374,33.185167,-121.547000,17.163,33.074,NaN,NaN
20040723,002908,874404,33.186000,-121.545500,17.160,33.074,NaN,NaN
20040723,002938,874434,33.186833,-121.544167,17.163,33.074,NaN,NaN
20040723,003008,874464,33.187667,-121.542667,17.168,33.075,NaN,NaN
20040723,003038,874494,33.188500,-121.541167,17.174,33.077,NaN,NaN
20040723,003108,874524,33.189333,-121.539833,17.171,33.078,NaN,NaN
20040723,003138,874554,33.190167,-121.538500,17.168,33.078,1.954,NaN
20040723,003208,874584,33.191000,-121.537000,17.165,33.077,NaN,NaN
20040723,003238,874614,33.191833,-121.535667,17.166,33.076,NaN,NaN
20040723,003308,874644,33.192667,-121.534333,17.166,33.076,NaN,NaN
20040723,003338,874674,33.193500,-121.533000,17.164,33.075,NaN,NaN
20040723,003408,874704,33.194167,-121.531667,17.163,33.075,NaN,NaN
20040723,003438,874734,33.195000,-121.530333,17.166,33.076,NaN,NaN
20040723,003508,874764,33.195667,-121.529000,17.171,33.076,NaN,NaN
20040723,003538,874794,33.196500,-121.527667,17.174,33.078,NaN,NaN
20040723,003608,874824,33.197167,-121.526333,17.177,33.078,NaN,NaN
20040723,003638,874854,33.198000,-121.525167,17.177,33.078,NaN,NaN
20040723,003708,874884,33.198833,-121.523833,17.178,33.079,NaN,NaN
20040723,003738,874914,33.199667,-121.522500,17.180,33.080,NaN,NaN
20040723,003808,874944,33.200500,-121.521333,17.178,33.079,NaN,NaN
20040723,003838,874974,33.201333,-121.520000,17.176,33.077,NaN,NaN
20040723,003908,875004,33.202167,-121.518667,17.175,33.076,NaN,NaN
20040723,003938,875034,33.203000,-121.517333,17.171,33.076,NaN,NaN
20040723,004008,875064,33.203833,-121.516000,17.173,33.075,NaN,NaN
20040723,004038,875094,33.204667,-121.514833,17.171,33.076,NaN,NaN
20040723,004108,875124,33.205500,-121.513500,17.173,33.077,NaN,NaN
20040723,004138,875154,33.206333,-121.512167,17.173,33.077,NaN,NaN
20040723,004208,875184,33.207167,-121.510833,17.174,33.077,NaN,NaN
20040723,004238,875214,33.207833,-121.509500,17.173,33.078,NaN,NaN
20040723,004308,875244,33.208833,-121.508333,17.173,33.076,NaN,NaN
20040723,004338,875274,33.209667,-121.507000,17.170,33.076,NaN,NaN
20040723,004408,875304,33.210333,-121.505667,17.168,33.076,NaN,NaN
20040723,004438,875334,33.211333,-121.504333,17.167,33.075,NaN,NaN
20040723,004508,875364,33.212167,-121.503000,17.170,33.073,NaN,NaN
20040723,004538,875394,33.213000,-121.501667,17.171,33.075,NaN,NaN
20040723,004608,875424,33.213833,-121.500333,17.172,33.075,NaN,NaN
20040723,004638,875454,33.214500,-121.499000,17.173,33.077,NaN,NaN
20040723,004708,875484,33.215333,-121.497667,17.175,33.076,NaN,NaN
20040723,004738,875514,33.216167,-121.496333,17.176,33.077,NaN,NaN
20040723,004808,875544,33.217000,-121.495000,17.177,33.077,NaN,NaN
20040723,004838,875574,33.217833,-121.493667,17.179,33.077,NaN,NaN
20040723,004908,875604,33.218667,-121.492333,17.182,33.077,NaN,NaN
20040723,004938,875634,33.219500,-121.491000,17.179,33.077,NaN,NaN
20040723,005008,875664,33.220333,-121.489667,17.178,33.077,NaN,NaN
20040723,005038,875694,33.221167,-121.488333,17.177,33.076,NaN,NaN
20040723,005108,875724,33.222000,-121.487000,17.179,33.076,NaN,NaN
20040723,005138,875754,33.222833,-121.485667,17.182,33.076,NaN,NaN
20040723,005208,875784,33.223500,-121.484333,17.183,33.076,NaN,NaN
20040723,005238,875814,33.224333,-121.483000,17.185,33.076,NaN,NaN
20040723,005308,875844,33.225167,-121.481667,17.186,33.076,NaN,NaN
20040723,005338,875874,33.226000,-121.480333,17.186,33.076,NaN,NaN
20040723,005408,875904,33.226833,-121.479000,17.189,33.077,NaN,NaN
20040723,005438,875934,33.227667,-121.477667,17.189,33.077,NaN,NaN
20040723,005508,875964,33.228333,-121.476333,17.188,33.077,NaN,NaN
20040723,005538,875994,33.229167,-121.475000,17.185,33.077,NaN,NaN
20040723,005608,876024,33.230000,-121.473667,17.188,33.077,NaN,NaN
20040723,005638,876054,33.230667,-121.472333,17.183,33.078,NaN,NaN
20040723,005708,876084,33.231500,-121.471000,17.178,33.078,NaN,NaN
20040723,005738,876114,33.232333,-121.469500,17.177,33.078,NaN,NaN
20040723,005808,876144,33.233000,-121.468167,17.174,33.079,NaN,NaN
20040723,005838,876174,33.233833,-121.466833,17.172,33.079,NaN,NaN
20040723,005908,876204,33.234667,-121.465500,17.165,33.080,NaN,NaN
20040723,005938,876234,33.235500,-121.464167,17.162,33.080,NaN,NaN
20040723,010008,876264,33.236167,-121.462833,17.160,33.079,NaN,NaN
20040723,010038,876294,33.237000,-121.461500,17.155,33.081,NaN,NaN
20040723,010108,876324,33.237833,-121.460000,17.152,33.079,NaN,NaN
20040723,010138,876354,33.238500,-121.458667,17.146,33.079,2.565,NaN
20040723,010208,876384,33.239333,-121.457333,17.140,33.080,NaN,NaN
20040723,010238,876414,33.240167,-121.456000,17.142,33.081,NaN,NaN
20040723,010308,876444,33.240833,-121.454667,17.142,33.083,NaN,NaN
20040723,010338,876474,33.241667,-121.453167,17.140,33.084,NaN,NaN
20040723,010408,876504,33.242333,-121.452167,17.142,33.083,NaN,NaN
20040723,010438,876534,33.242833,-121.451500,17.140,33.084,NaN,NaN
20040723,010508,876564,33.243333,-121.451000,17.139,33.083,NaN,NaN
20040723,010538,876594,33.243833,-121.450667,17.136,33.083,NaN,NaN
20040723,010608,876624,33.244167,-121.450333,17.134,33.082,NaN,NaN
20040723,010638,876654,33.244500,-121.450167,17.133,33.083,NaN,NaN
20040723,010708,876684,33.244667,-121.449833,17.131,33.083,NaN,NaN
20040723,010738,876714,33.245000,-121.449500,17.128,33.082,NaN,NaN
20040723,010808,876744,33.245167,-121.449000,17.124,33.081,NaN,NaN
20040723,010838,876774,33.245333,-121.448500,17.122,33.082,NaN,NaN
20040723,010908,876804,33.245500,-121.447833,17.127,33.082,NaN,NaN
20040723,010938,876834,33.245500,-121.447000,17.132,33.083,NaN,NaN
20040723,011008,876864,33.245333,-121.446000,17.136,33.083,NaN,NaN
20040723,011038,876894,33.245000,-121.445500,17.140,33.084,NaN,NaN
20040723,011108,876924,33.244667,-121.445000,17.142,33.085,NaN,NaN
20040723,011138,876954,33.244667,-121.444500,17.143,33.085,NaN,NaN
20040723,011208,876984,33.244667,-121.444167,17.143,33.085,NaN,NaN
20040723,011238,877014,33.244833,-121.443833,17.139,33.085,NaN,NaN
20040723,011308,877044,33.245000,-121.443500,17.136,33.085,NaN,NaN
20040723,011338,877074,33.245167,-121.443333,17.136,33.084,NaN,NaN
20040723,011408,877104,33.245167,-121.443167,17.137,33.085,NaN,NaN
20040723,011438,877134,33.245167,-121.443000,17.139,33.085,NaN,NaN
20040723,011508,877164,33.245167,-121.442833,17.143,33.085,NaN,NaN
20040723,011538,877194,33.245167,-121.442667,17.143,33.085,NaN,NaN
20040723,011608,877224,33.245167,-121.442333,17.143,33.084,NaN,NaN
20040723,011638,877254,33.245167,-121.442167,17.156,33.084,NaN,NaN
20040723,011708,877284,33.245167,-121.441833,17.167,33.085,NaN,NaN
20040723,011738,877314,33.245167,-121.441667,17.155,33.086,NaN,NaN
20040723,011808,877344,33.245000,-121.441500,17.148,33.086,NaN,NaN
20040723,011838,877374,33.245000,-121.441167,17.147,33.086,NaN,NaN
20040723,011908,877404,33.245167,-121.441000,17.141,33.086,NaN,NaN
20040723,011938,877434,33.245167,-121.440667,17.138,33.086,NaN,NaN
20040723,012008,877464,33.245333,-121.440500,17.137,33.086,NaN,NaN
20040723,012038,877494,33.245333,-121.440333,17.139,33.087,NaN,NaN
20040723,012108,877524,33.245333,-121.440333,17.140,33.086,NaN,NaN
20040723,012138,877554,33.245333,-121.440167,17.141,33.087,NaN,NaN
20040723,012208,877584,33.245333,-121.440000,17.140,33.086,NaN,NaN
20040723,012238,877614,33.245333,-121.440000,17.139,33.086,NaN,NaN
20040723,012308,877644,33.245333,-121.439833,17.139,33.086,NaN,NaN
20040723,012338,877674,33.245333,-121.439500,17.139,33.087,NaN,NaN
20040723,012408,877704,33.245333,-121.439333,17.139,33.087,NaN,NaN
20040723,012438,877734,33.245333,-121.439333,17.137,33.086,NaN,NaN
20040723,012508,877764,33.245333,-121.439333,17.136,33.086,NaN,NaN
20040723,012538,877794,33.245333,-121.439167,17.135,33.087,NaN,NaN
20040723,012608,877824,33.245500,-121.439167,17.135,33.087,NaN,NaN
20040723,012638,877854,33.245500,-121.439167,17.133,33.087,NaN,NaN
20040723,012708,877884,33.245500,-121.439000,17.131,33.086,NaN,NaN
20040723,012738,877914,33.245500,-121.439000,17.132,33.087,NaN,NaN
20040723,012808,877944,33.245500,-121.439000,17.131,33.086,NaN,NaN
20040723,012838,877974,33.245500,-121.438833,17.131,33.087,NaN,NaN
20040723,012907,878003,33.245500,-121.438833,17.132,33.086,NaN,NaN
20040723,012937,878033,33.245500,-121.438667,17.132,33.086,NaN,NaN
20040723,013007,878063,33.245333,-121.438500,17.131,33.086,NaN,NaN
20040723,013037,878093,33.245333,-121.438500,17.132,33.087,NaN,NaN
20040723,013107,878123,33.245333,-121.438333,17.132,33.087,NaN,NaN
20040723,013137,878153,33.245167,-121.438167,17.133,33.087,2.746,NaN
20040723,013207,878183,33.245167,-121.438167,17.132,33.087,NaN,NaN
20040723,013237,878213,33.245167,-121.438000,17.137,33.086,NaN,NaN
20040723,013307,878243,33.245167,-121.437833,17.150,33.086,NaN,NaN
20040723,013337,878273,33.245000,-121.437667,17.148,33.086,NaN,NaN
20040723,013407,878303,33.245000,-121.437500,17.139,33.087,NaN,NaN
20040723,013437,878333,33.245000,-121.437333,17.134,33.086,NaN,NaN
20040723,013507,878363,33.245000,-121.437000,17.131,33.086,NaN,NaN
20040723,013537,878393,33.245000,-121.437000,17.131,33.086,NaN,NaN
20040723,013607,878423,33.245000,-121.436833,17.132,33.087,NaN,NaN
20040723,013637,878453,33.245000,-121.436667,17.131,33.087,NaN,NaN
20040723,013707,878483,33.245000,-121.436667,17.133,33.087,NaN,NaN
20040723,013737,878513,33.245000,-121.436667,17.134,33.087,NaN,NaN
20040723,013807,878543,33.245000,-121.436667,17.133,33.087,NaN,NaN
20040723,013837,878573,33.245167,-121.436500,17.134,33.087,NaN,NaN
20040723,013907,878603,33.245333,-121.436333,17.133,33.087,NaN,NaN
20040723,013937,878633,33.245333,-121.436167,17.132,33.087,NaN,NaN
20040723,014007,878663,33.245500,-121.436167,17.130,33.087,NaN,NaN
20040723,014037,878693,33.245500,-121.436167,17.129,33.087,NaN,NaN
20040723,014107,878723,33.245500,-121.436000,17.129,33.088,NaN,NaN
20040723,014137,878753,33.245667,-121.436000,17.128,33.087,NaN,NaN
20040723,014207,878783,33.245667,-121.436000,17.126,33.088,NaN,NaN
20040723,014237,878813,33.245833,-121.435833,17.124,33.086,NaN,NaN
20040723,014307,878843,33.246000,-121.435833,17.123,33.087,NaN,NaN
20040723,014337,878873,33.246000,-121.435667,17.123,33.087,NaN,NaN
20040723,014407,878903,33.246167,-121.435667,17.123,33.088,NaN,NaN
20040723,014437,878933,33.246167,-121.435500,17.124,33.088,NaN,NaN
20040723,014507,878963,33.246167,-121.435500,17.124,33.088,NaN,NaN
20040723,014537,878993,33.246167,-121.435500,17.124,33.087,NaN,NaN
20040723,014607,879023,33.246167,-121.435333,17.122,33.087,NaN,NaN
20040723,014637,879053,33.246167,-121.435333,17.121,33.088,NaN,NaN
20040723,014707,879083,33.246167,-121.435333,17.122,33.088,NaN,NaN
20040723,014737,879113,33.246167,-121.435333,17.123,33.088,NaN,NaN
20040723,014807,879143,33.246167,-121.435167,17.123,33.087,NaN,NaN
20040723,014837,879173,33.246333,-121.435000,17.123,33.088,NaN,NaN
20040723,014907,879203,33.246333,-121.434833,17.122,33.087,NaN,NaN
20040723,014937,879233,33.246333,-121.434667,17.121,33.087,NaN,NaN
20040723,015007,879263,33.246333,-121.434500,17.120,33.088,NaN,NaN
20040723,015037,879293,33.246500,-121.434333,17.119,33.087,NaN,NaN
20040723,015107,879323,33.246500,-121.434167,17.117,33.087,NaN,NaN
20040723,015137,879353,33.246667,-121.434167,17.117,33.087,NaN,NaN
20040723,015207,879383,33.246667,-121.434000,17.117,33.088,NaN,NaN
20040723,015237,879413,33.246667,-121.434000,17.118,33.088,NaN,NaN
20040723,015307,879443,33.246667,-121.434000,17.117,33.087,NaN,NaN
20040723,015337,879473,33.246667,-121.434000,17.117,33.087,NaN,NaN
20040723,015407,879503,33.246833,-121.434000,17.117,33.087,NaN,NaN
20040723,015437,879533,33.246833,-121.434000,17.116,33.087,NaN,NaN
20040723,015507,879563,33.247000,-121.434000,17.116,33.087,NaN,NaN
20040723,015537,879593,33.247167,-121.433833,17.114,33.088,NaN,NaN
20040723,015607,879623,33.247167,-121.433833,17.113,33.088,NaN,NaN
20040723,015637,879653,33.247333,-121.433833,17.112,33.087,NaN,NaN
20040723,015707,879683,33.247500,-121.433667,17.113,33.087,NaN,NaN
20040723,015737,879713,33.247667,-121.433667,17.110,33.087,NaN,NaN
20040723,015807,879743,33.247667,-121.433500,17.107,33.087,NaN,NaN
20040723,015837,879773,33.247833,-121.433500,17.106,33.087,NaN,NaN
20040723,015907,879803,33.247833,-121.433500,17.107,33.087,NaN,NaN
20040723,015937,879833,33.247833,-121.433667,17.107,33.086,NaN,NaN
20040723,020007,879863,33.247833,-121.433833,17.106,33.087,NaN,NaN
20040723,020037,879893,33.247667,-121.433833,17.106,33.087,NaN,NaN
20040723,020107,879923,33.247667,-121.433833,17.107,33.086,NaN,NaN
20040723,020137,879953,33.247667,-121.433833,17.106,33.086,2.869,NaN
20040723,020207,879983,33.247500,-121.433833,17.106,33.087,NaN,NaN
20040723,020237,880013,33.247333,-121.433667,17.105,33.085,NaN,NaN
20040723,020307,880043,33.247167,-121.433500,17.103,33.086,NaN,NaN
20040723,020337,880073,33.247000,-121.433500,17.102,33.086,NaN,NaN
20040723,020407,880103,33.246833,-121.433667,17.103,33.084,NaN,NaN
20040723,020437,880133,33.246833,-121.433667,17.103,33.085,NaN,NaN
20040723,020507,880163,33.246833,-121.433833,17.103,33.086,NaN,NaN
20040723,020537,880193,33.246833,-121.433833,17.103,33.086,NaN,NaN
20040723,020607,880223,33.246833,-121.433667,17.103,33.086,NaN,NaN
20040723,020637,880253,33.247000,-121.433500,17.101,33.086,NaN,NaN
20040723,020707,880283,33.247000,-121.433333,17.100,33.086,NaN,NaN
20040723,020737,880313,33.247333,-121.433167,17.100,33.086,NaN,NaN
20040723,020807,880343,33.247333,-121.433000,17.099,33.086,NaN,NaN
20040723,020837,880373,33.247333,-121.433000,17.100,33.086,NaN,NaN
20040723,020907,880403,33.247500,-121.432833,17.101,33.085,NaN,NaN
20040723,020937,880433,33.247500,-121.432833,17.100,33.086,NaN,NaN
20040723,021007,880463,33.247500,-121.432833,17.099,33.087,NaN,NaN
20040723,021037,880493,33.247500,-121.432667,17.098,33.087,NaN,NaN
20040723,021107,880523,33.247333,-121.432667,17.099,33.087,NaN,NaN
20040723,021137,880553,33.247333,-121.432667,17.098,33.088,NaN,NaN
20040723,021207,880583,33.247333,-121.432500,17.099,33.088,NaN,NaN
20040723,021237,880613,33.247333,-121.432500,17.098,33.089,NaN,NaN
20040723,021307,880643,33.247333,-121.432333,17.099,33.090,NaN,NaN
20040723,021337,880673,33.247333,-121.432333,17.098,33.090,NaN,NaN
20040723,021407,880703,33.247333,-121.432333,17.100,33.090,NaN,NaN
20040723,021437,880733,33.247167,-121.432000,17.099,33.090,NaN,NaN
20040723,021507,880763,33.247167,-121.432000,17.100,33.091,NaN,NaN
20040723,021537,880793,33.247000,-121.431833,17.102,33.090,NaN,NaN
20040723,021607,880823,33.247000,-121.431667,17.108,33.090,NaN,NaN
20040723,021637,880853,33.247000,-121.431500,17.114,33.091,NaN,NaN
20040723,021707,880883,33.246833,-121.431333,17.113,33.092,NaN,NaN
20040723,021737,880913,33.246833,-121.431167,17.108,33.092,NaN,NaN
20040723,021807,880943,33.246833,-121.431167,17.103,33.092,NaN,NaN
20040723,021837,880973,33.246833,-121.431167,17.099,33.091,NaN,NaN
20040723,021907,881003,33.247000,-121.431167,17.095,33.092,NaN,NaN
20040723,021937,881033,33.247333,-121.431167,17.093,33.091,NaN,NaN
20040723,022007,881063,33.247500,-121.431333,17.090,33.092,NaN,NaN
20040723,022037,881093,33.247667,-121.431500,17.087,33.091,NaN,NaN
20040723,022107,881123,33.248000,-121.431667,17.082,33.091,NaN,NaN
20040723,022137,881153,33.248167,-121.431667,17.078,33.090,NaN,NaN
20040723,022207,881183,33.248333,-121.431833,17.077,33.091,NaN,NaN
20040723,022237,881213,33.248333,-121.431833,17.076,33.091,NaN,NaN
20040723,022307,881243,33.248500,-121.431833,17.074,33.091,NaN,NaN
20040723,022337,881273,33.248500,-121.431833,17.074,33.091,NaN,NaN
20040723,022407,881303,33.248500,-121.431833,17.074,33.092,NaN,NaN
20040723,022437,881333,33.248500,-121.431833,17.072,33.091,NaN,NaN
20040723,022507,881363,33.248500,-121.431833,17.070,33.091,NaN,NaN
20040723,022537,881393,33.248500,-121.431833,17.069,33.091,NaN,NaN
20040723,022607,881423,33.248500,-121.431833,17.065,33.091,NaN,NaN
20040723,022637,881453,33.248333,-121.431833,17.062,33.091,NaN,NaN
20040723,022707,881483,33.248333,-121.432000,17.058,33.092,NaN,NaN
20040723,022737,881513,33.248333,-121.432000,17.055,33.090,NaN,NaN
20040723,022807,881543,33.248167,-121.432000,17.053,33.090,NaN,NaN
20040723,022837,881573,33.248167,-121.432000,17.053,33.090,NaN,NaN
20040723,022907,881603,33.248000,-121.432000,17.054,33.089,NaN,NaN
20040723,022937,881633,33.247833,-121.432167,17.054,33.089,NaN,NaN
20040723,023007,881663,33.247833,-121.432167,17.055,33.089,NaN,NaN
20040723,023037,881693,33.247667,-121.432167,17.054,33.089,NaN,NaN
20040723,023107,881723,33.247667,-121.432167,17.053,33.088,NaN,NaN
20040723,023137,881753,33.247500,-121.432167,17.053,33.085,3.074,NaN
20040723,023207,881783,33.247333,-121.432167,17.053,33.085,NaN,NaN
20040723,023237,881813,33.247333,-121.432167,17.053,33.084,NaN,NaN
20040723,023307,881843,33.247167,-121.432167,17.054,33.084,NaN,NaN
20040723,023337,881873,33.247167,-121.432167,17.055,33.084,NaN,NaN
20040723,023407,881903,33.247167,-121.432167,17.056,33.084,NaN,NaN
20040723,023437,881933,33.247000,-121.432167,17.057,33.083,NaN,NaN
20040723,023507,881963,33.247000,-121.432000,17.058,33.087,NaN,NaN
20040723,023537,881993,33.247000,-121.432000,17.059,33.087,NaN,NaN
20040723,023607,882023,33.247000,-121.432000,17.058,33.087,NaN,NaN
20040723,023637,882053,33.247000,-121.432000,17.059,33.087,NaN,NaN
20040723,023707,882083,33.247000,-121.431833,17.059,33.087,NaN,NaN
20040723,023737,882113,33.247167,-121.431833,17.059,33.087,NaN,NaN
20040723,023807,882143,33.247333,-121.431833,17.059,33.088,NaN,NaN
20040723,023837,882173,33.247500,-121.432000,17.057,33.088,NaN,NaN
20040723,023907,882203,33.247667,-121.432000,17.056,33.088,NaN,NaN
20040723,023937,882233,33.248000,-121.432000,17.054,33.089,NaN,NaN
20040723,024007,882263,33.248000,-121.432000,17.054,33.089,NaN,NaN
20040723,024037,882293,33.248167,-121.432000,17.053,33.088,NaN,NaN
20040723,024107,882323,33.248333,-121.432000,17.052,33.089,NaN,NaN
20040723,024137,882353,33.248500,-121.432000,17.050,33.089,NaN,NaN
20040723,024207,882383,33.248667,-121.432000,17.047,33.088,NaN,NaN
20040723,024237,882413,33.248833,-121.432000,17.044,33.087,NaN,NaN
20040723,024307,882443,33.248833,-121.432000,17.043,33.088,NaN,NaN
20040723,024337,882473,33.248833,-121.432167,17.042,33.089,NaN,NaN
20040723,024407,882503,33.249000,-121.432167,17.043,33.089,NaN,NaN
20040723,024437,882533,33.249000,-121.432167,17.043,33.088,NaN,NaN
20040723,024507,882563,33.249167,-121.432167,17.041,33.088,NaN,NaN
20040723,024537,882593,33.249167,-121.432333,17.042,33.088,NaN,NaN
20040723,024607,882623,33.249167,-121.432500,17.041,33.088,NaN,NaN
20040723,024637,882653,33.249167,-121.432500,17.041,33.087,NaN,NaN
20040723,024707,882683,33.249167,-121.432667,17.040,33.087,NaN,NaN
20040723,024737,882713,33.249333,-121.433000,17.038,33.087,NaN,NaN
20040723,024807,882743,33.249500,-121.433167,17.033,33.088,NaN,NaN
20040723,024837,882773,33.249667,-121.433500,17.029,33.089,NaN,NaN
20040723,024907,882803,33.249833,-121.433667,17.023,33.089,NaN,NaN
20040723,024937,882833,33.249833,-121.433833,17.019,33.090,NaN,NaN
20040723,025007,882863,33.250000,-121.434000,17.012,33.089,NaN,NaN
20040723,025037,882893,33.250000,-121.434167,17.008,33.090,NaN,NaN
20040723,025107,882923,33.250167,-121.434333,17.002,33.091,NaN,NaN
20040723,025137,882953,33.250167,-121.434500,16.995,33.092,NaN,NaN
20040723,025207,882983,33.250167,-121.434500,16.992,33.092,NaN,NaN
20040723,025237,883013,33.250167,-121.434667,16.988,33.094,NaN,NaN
20040723,025307,883043,33.250333,-121.434667,16.987,33.094,NaN,NaN
20040723,025337,883073,33.250333,-121.435000,16.986,33.094,NaN,NaN
20040723,025407,883103,33.250333,-121.435167,16.987,33.095,NaN,NaN
20040723,025437,883133,33.250500,-121.435333,16.988,33.095,NaN,NaN
20040723,025507,883163,33.250667,-121.435667,16.988,33.095,NaN,NaN
20040723,025537,883193,33.250667,-121.435833,16.991,33.094,NaN,NaN